Regional Weather Roundup
Issued by NWS

Home | Current Version | Previous Version | Text Only | Print | Product List | Glossary Off
Versions: 1 2 3 4 5 6 7 8 9 10 11 12 13 14 15 16 17 18 19 20 21 22 23 24 25 26 27 28 29 30 31 32 33 34 35 36 37 38 39 40 41 42 43 44 45 46 47 48 49 50

000
ASUS43 KLMK 251802
RWRKY
KENTUCKY REGIONAL WEATHER ROUNDUP
NATIONAL WEATHER SERVICE LOUISVILLE KY
200 PM EDT THU AUG 25 2016

NOTE "FAIR" INDICATES FEW OR NO CLOUDS BELOW 12,000 FEET
WITH NO SIGNIFICANT WEATHER AND/OR OBSTRUCTIONS TO VISIBILITY.

KYZ001>023-026-027-061>063-070>075-251900-
WESTERN AND SOUTH CENTRAL KENTUCKY

CITY           SKY/WX    TMP DP  RH WIND       PRES   REMARKS
PADUCAH        PTSUNNY   90  73  57 W9G21     30.10F HX  98
HENDERSON      SUNNY     93  72  49 W7        30.08S HX 100
OWENSBORO      MOSUNNY   92  73  53 W10       30.11S HX 100
HOPKINSVILLE   SUNNY     91  73  56 SW10      30.12F HX  99
BOWLING GREEN  PTSUNNY   91  73  55 W7G17     30.12F HX  99
GLASGOW        CLOUDY    89  73  58 W5        30.13F HX  97
$$

KYZ024-025-028>034-038-045-046-053-251900-
NORTH CENTRAL KENTUCKY

CITY           SKY/WX    TMP DP  RH WIND       PRES   REMARKS
LOUISVILLE/SDF MOSUNNY   91  71  51 SW13      30.09F HX  97
LOUISVILLE/LOU SUNNY     90  69  50 SW13G20   30.10F HX  94
FORT KNOX      MOSUNNY   90  73  57 W13       30.10F HX  97
$$

KYZ035>037-039>044-047>052-055>060-089>105-251900-
NORTHEAST KENTUCKY

CITY           SKY/WX    TMP DP  RH WIND       PRES   REMARKS
LEXINGTON      MOSUNNY   89  70  53 SW13G20   30.13F HX  94
COVINGTON      MOSUNNY   87  75  67 SW8       30.09F HX  96
FRANKFORT      MOSUNNY   90  72  55 SW9G18    30.11S HX  97
$$

KYZ054-064>069-076>088-106>120-251900-
SOUTHEAST KENTUCKY

CITY           SKY/WX    TMP DP  RH WIND       PRES   REMARKS
JACKSON        MOSUNNY   89  75  63 CALM      30.17F HX  99
LONDON         PTSUNNY   88  71  57 W9        30.17F HX  94
SOMERSET       MOSUNNY   86  72  62 W9        30.17S HX  92
MIDDLESBORO    CLOUDY    86  74  66 SW10      30.18S HX  94
MONTICELLO     CLOUDY   N/A N/A N/A W9G18     30.17F
$$




USA.gov is the U.S. government's official web portal to all federal, state and local government web resources and services.